When you browse on this site, cookies collect data to enhance your experience and personalize the content and advertising you see.
Visit our Privacy Policy to learn more. By continuing to use the site, you agree to this use of cookies and data.
  • In Hungary
  • List of Countries
  • For 7 days
  • Water Temperature
  • Satellite Maps
  • Weather Map
  • News
  • Weather Widgets
  • user-avatar
    Login

    Hourly Weather Tavakanovo

    Today, 24 January, Thursday

    Time Temperature Precipitation Wind Pressure Humidity
    00:00 -25°C° 0 mm 1 mps 742 mmHg 99%
    01:00 -25°C° 0 mm 1 mps 742 mmHg 99%
    02:00 -25°C° 0 mm 0 mps 743 mmHg 99%
    03:00 -25°C° 0 mm 0 mps 743 mmHg 99%
    04:00 -26°C° 0 mm 0 mps 743 mmHg 99%
    05:00 -26°C° 0 mm 0 mps 744 mmHg 99%
    06:00 -26°C° 0 mm 0 mps 744 mmHg 99%
    07:00 -26°C° 0 mm 0 mps 745 mmHg 99%
    08:00 -24°C° 0 mm 1 mps 745 mmHg 99%
    09:00 -23°C° 0 mm 1 mps 745 mmHg 98%
    10:00 -22°C° 0 mm 1 mps 746 mmHg 97%
    11:00 -21°C° 0 mm 1 mps 746 mmHg 95%
    12:00 -19°C° 0 mm 1 mps 746 mmHg 94%
    13:00 -18°C° 0 mm 1 mps 746 mmHg 93%
    14:00 -18°C° 0 mm 1 mps 746 mmHg 94%
    15:00 -19°C° 0 mm 1 mps 746 mmHg 94%
    16:00 -19°C° 0 mm 1 mps 745 mmHg 95%
    17:00 -21°C° 0 mm 2 mps 745 mmHg 94%
    18:00 -20°C° 0 mm 2 mps 745 mmHg 93%
    19:00 -20°C° 0 mm 2 mps 745 mmHg 91%
    20:00 -19°C° 0 mm 2 mps 744 mmHg 90%
    21:00 -19°C° 0 mm 3 mps 744 mmHg 88%
    22:00 -18°C° 0 mm 3 mps 743 mmHg 86%
    23:00 -19°C° 0.3 mm 5 mps 743 mmHg 88%

    Tomorrow, 25 January, Friday

    Time Temperature Precipitation Wind Pressure Humidity
    00:00 -18°C° 0.3 mm 6 mps 742 mmHg 90%
    01:00 -18°C° 0.3 mm 7 mps 741 mmHg 92%
    02:00 -18°C° 0.6 mm 8 mps 740 mmHg 90%
    03:00 -17°C° 0.6 mm 9 mps 739 mmHg 88%
    04:00 -17°C° 0.6 mm 9 mps 739 mmHg 87%
    05:00 -17°C° 1.1 mm 9 mps 738 mmHg 89%
    06:00 -19°C° 1.1 mm 9 mps 737 mmHg 92%
    07:00 -19°C° 1.1 mm 9 mps 736 mmHg 94%
    08:00 -19°C° 1 mm 9 mps 735 mmHg 94%
    09:00 -17°C° 1 mm 8 mps 735 mmHg 94%
    10:00 -17°C° 1 mm 8 mps 734 mmHg 94%
    11:00 -15°C° 0.5 mm 7 mps 734 mmHg 94%
    12:00 -14°C° 0.5 mm 7 mps 733 mmHg 94%
    13:00 -14°C° 0.5 mm 6 mps 733 mmHg 94%
    14:00 -11°C° 0.4 mm 6 mps 733 mmHg 93%
    15:00 -10°C° 0.4 mm 6 mps 733 mmHg 93%
    16:00 -9°C° 0.4 mm 6 mps 733 mmHg 92%
    17:00 -12°C° 0 mm 5 mps 733 mmHg 93%
    18:00 -14°C° 0 mm 4 mps 734 mmHg 94%
    19:00 -16°C° 0 mm 3 mps 735 mmHg 94%
    20:00 -18°C° 0 mm 3 mps 736 mmHg 95%
    21:00 -19°C° 0 mm 3 mps 737 mmHg 96%
    22:00 -22°C° 0 mm 3 mps 738 mmHg 97%
    23:00 -23°C° 0 mm 3 mps 738 mmHg 97%

    Day after tomorrow, 26 January, Saturday

    Time Temperature Precipitation Wind Pressure Humidity
    00:00 -23°C° 0 mm 2 mps 739 mmHg 98%
    01:00 -24°C° 0 mm 2 mps 740 mmHg 98%
    02:00 -25°C° 0 mm 2 mps 740 mmHg 98%
    03:00 -26°C° 0 mm 2 mps 741 mmHg 98%
    04:00 -27°C° 0 mm 2 mps 741 mmHg 98%
    05:00 -27°C° 0 mm 2 mps 742 mmHg 98%
    06:00 -24°C° 0 mm 1 mps 742 mmHg 98%
    07:00 -25°C° 0 mm 1 mps 743 mmHg 98%
    08:00 -24°C° 0 mm 1 mps 743 mmHg 97%
    09:00 -23°C° 0 mm 1 mps 744 mmHg 96%
    10:00 -22°C° 0 mm 1 mps 744 mmHg 95%
    11:00 -20°C° 0 mm 1 mps 744 mmHg 93%
    12:00 -19°C° 0 mm 1 mps 744 mmHg 90%
    13:00 -17°C° 0 mm 1 mps 745 mmHg 88%
    14:00 -17°C° 0 mm 1 mps 745 mmHg 89%
    15:00 -20°C° 0 mm 2 mps 745 mmHg 90%
    16:00 -20°C° 0 mm 2 mps 745 mmHg 90%
    17:00 -21°C° 0 mm 2 mps 745 mmHg 89%
    18:00 -21°C° 0 mm 2 mps 745 mmHg 88%
    19:00 -21°C° 0 mm 2 mps 745 mmHg 87%
    20:00 -21°C° 0 mm 2 mps 745 mmHg 85%
    21:00 -19°C° 0 mm 1 mps 745 mmHg 82%
    22:00 -19°C° 0 mm 1 mps 745 mmHg 80%
    23:00 -19°C° 0 mm 1 mps 746 mmHg 78%

    27 January, Sunday

    Time Temperature Precipitation Wind Pressure Humidity
    00:00 -21°C° 0 mm 2 mps 746 mmHg 76%
    01:00 -21°C° 0 mm 2 mps 746 mmHg 74%
    02:00 -21°C° 0 mm 2 mps 746 mmHg 74%
    03:00 -21°C° 0 mm 2 mps 746 mmHg 74%
    04:00 -21°C° 0 mm 2 mps 746 mmHg 74%
    05:00 -23°C° 0 mm 3 mps 745 mmHg 75%
    06:00 -23°C° 0 mm 3 mps 745 mmHg 75%
    07:00 -23°C° 0 mm 3 mps 745 mmHg 76%
    08:00 -23°C° 0 mm 4 mps 745 mmHg 75%
    09:00 -22°C° 0 mm 4 mps 746 mmHg 75%
    10:00 -20°C° 0 mm 4 mps 746 mmHg 74%
    11:00 -20°C° 0 mm 5 mps 745 mmHg 73%
    12:00 -18°C° 0 mm 6 mps 745 mmHg 72%
    13:00 -18°C° 0 mm 7 mps 745 mmHg 71%
    14:00 -18°C° 0 mm 7 mps 745 mmHg 71%
    15:00 -18°C° 0 mm 6 mps 744 mmHg 71%
    16:00 -18°C° 0 mm 6 mps 744 mmHg 71%
    17:00 -20°C° 0 mm 6 mps 744 mmHg 70%
    18:00 -20°C° 0 mm 7 mps 744 mmHg 70%
    19:00 -21°C° 0 mm 7 mps 743 mmHg 69%
    20:00 -20°C° 0 mm 7 mps 743 mmHg 68%
    21:00 -20°C° 0 mm 7 mps 743 mmHg 67%
    22:00 -20°C° 0 mm 7 mps 743 mmHg 66%
    23:00 -20°C° 0 mm 7 mps 743 mmHg 66%

    28 January, Monday

    Time Temperature Precipitation Wind Pressure Humidity
    00:00 -20°C° 0 mm 7 mps 742 mmHg 66%
    01:00 -20°C° 0 mm 7 mps 742 mmHg 65%
    02:00 -20°C° 0 mm 7 mps 741 mmHg 66%
    03:00 -20°C° 0 mm 7 mps 741 mmHg 66%
    04:00 -20°C° 0 mm 7 mps 740 mmHg 67%
    05:00 -20°C° 0 mm 7 mps 740 mmHg 68%
    06:00 -20°C° 0 mm 7 mps 740 mmHg 68%
    07:00 -19°C° 0 mm 8 mps 739 mmHg 69%
    08:00 -19°C° 0 mm 8 mps 739 mmHg 70%
    09:00 -18°C° 0 mm 8 mps 739 mmHg 72%
    10:00 -17°C° 0 mm 8 mps 738 mmHg 73%
    11:00 -16°C° 0 mm 8 mps 738 mmHg 74%
    12:00 -16°C° 0 mm 8 mps 737 mmHg 76%
    13:00 -15°C° 0 mm 8 mps 737 mmHg 77%
    14:00 -15°C° 0.1 mm 8 mps 736 mmHg 77%
    15:00 -15°C° 0.1 mm 8 mps 736 mmHg 78%
    16:00 -16°C° 0.1 mm 8 mps 735 mmHg 78%
    17:00 -16°C° 0 mm 8 mps 735 mmHg 79%
    18:00 -15°C° 0 mm 7 mps 735 mmHg 81%
    19:00 -17°C° 0 mm 7 mps 735 mmHg 82%
    20:00 -16°C° 0.3 mm 6 mps 735 mmHg 85%
    21:00 -16°C° 0.3 mm 6 mps 735 mmHg 87%
    22:00 -16°C° 0.3 mm 6 mps 735 mmHg 90%
    23:00 -16°C° 0.2 mm 6 mps 735 mmHg 90%

    29 January, Tuesday

    Time Temperature Precipitation Wind Pressure Humidity
    00:00 -16°C° 0.2 mm 6 mps 735 mmHg 90%
    01:00 -17°C° 0.2 mm 6 mps 734 mmHg 90%
    02:00 -15°C° 0.1 mm 5 mps 734 mmHg 90%
    03:00 -14°C° 0.1 mm 4 mps 734 mmHg 91%
    04:00 -12°C° 0.1 mm 4 mps 734 mmHg 91%
    05:00 -12°C° 0.1 mm 4 mps 734 mmHg 91%
    06:00 -12°C° 0.1 mm 3 mps 734 mmHg 91%
    07:00 -12°C° 0.1 mm 3 mps 734 mmHg 91%
    08:00 -10°C° 0.1 mm 3 mps 734 mmHg 91%
    09:00 -10°C° 0.1 mm 3 mps 734 mmHg 90%
    10:00 -10°C° 0.1 mm 3 mps 734 mmHg 90%
    11:00 -10°C° 0.2 mm 3 mps 734 mmHg 91%
    12:00 -11°C° 0.2 mm 4 mps 734 mmHg 91%
    13:00 -11°C° 0.2 mm 4 mps 734 mmHg 91%
    14:00 -10°C° 0.1 mm 3 mps 734 mmHg 90%
    15:00 -12°C° 0.1 mm 3 mps 734 mmHg 90%
    16:00 -12°C° 0.1 mm 3 mps 734 mmHg 90%
    17:00 -10°C° 0 mm 2 mps 735 mmHg 90%
    18:00 -12°C° 0 mm 2 mps 735 mmHg 90%
    19:00 -12°C° 0 mm 2 mps 736 mmHg 90%
    20:00 -11°C° 0 mm 1 mps 736 mmHg 90%
    21:00 -12°C° 0 mm 1 mps 736 mmHg 90%
    22:00 -13°C° 0 mm 1 mps 736 mmHg 90%
    23:00 -14°C° 0 mm 1 mps 736 mmHg 90%
    Show more